Time,TemperatureF,DewpointF,PressureIn,WindDirection,WindDirectionDegrees,WindSpeedMPH,WindSpeedGustMPH,Humidity,HourlyPrecipIn,Conditions,Clouds,dailyrainin,SoftwareType,DateUTC
2013-02-25 00:12:00,26.9,26.0,30.11,West,266,0.0,1.0,96,0.00,,,0.00,weatherlink.com 1.10,2013-02-25 05:12:00,
2013-02-25 00:27:00,26.7,26.0,30.11,West,266,0.0,0.0,95,0.00,,,0.00,weatherlink.com 1.10,2013-02-25 05:27:00,
2013-02-25 00:42:00,26.3,25.0,30.11,West,266,0.0,0.0,96,0.00,,,0.00,weatherlink.com 1.10,2013-02-25 05:42:00,
2013-02-25 00:57:00,26.4,25.0,30.12,West,266,0.0,1.0,96,0.00,,,0.00,weatherlink.com 1.10,2013-02-25 05:57:00,
2013-02-25 01:12:00,26.2,25.0,30.12,West,267,0.0,0.0,96,0.00,,,0.00,weatherlink.com 1.10,2013-02-25 06:12:00,
2013-02-25 01:27:00,25.8,25.0,30.11,West,267,0.0,0.0,96,0.00,,,0.00,weatherlink.com 1.10,2013-02-25 06:27:00,
2013-02-25 01:42:00,26.1,25.0,30.11,West,267,0.0,0.0,97,0.00,,,0.00,weatherlink.com 1.10,2013-02-25 06:42:00,
2013-02-25 01:57:00,26.7,26.0,30.11,West,266,0.0,0.0,97,0.00,,,0.00,weatherlink.com 1.10,2013-02-25 06:57:00,
2013-02-25 02:12:00,26.8,26.0,30.10,West,267,0.0,0.0,96,0.00,,,0.00,weatherlink.com 1.10,2013-02-25 07:12:00,
2013-02-25 02:27:00,27.0,26.0,30.12,West,266,0.0,0.0,96,0.00,,,0.00,weatherlink.com 1.10,2013-02-25 07:27:00,
2013-02-25 02:42:00,27.0,26.0,30.11,West,267,0.0,0.0,96,0.00,,,0.00,weatherlink.com 1.10,2013-02-25 07:42:00,
2013-02-25 02:57:00,27.2,26.0,30.12,West,267,0.0,0.0,96,0.00,,,0.00,weatherlink.com 1.10,2013-02-25 07:57:00,
2013-02-25 03:12:00,27.4,26.0,30.11,West,266,0.0,0.0,96,0.00,,,0.00,weatherlink.com 1.10,2013-02-25 08:12:00,
2013-02-25 03:27:00,27.5,27.0,30.10,West,267,0.0,0.0,96,0.00,,,0.00,weatherlink.com 1.10,2013-02-25 08:27:00,
2013-02-25 03:42:00,27.2,26.0,30.11,West,267,0.0,0.0,96,0.00,,,0.00,weatherlink.com 1.10,2013-02-25 08:42:00,
2013-02-25 03:57:00,27.3,26.0,30.11,West,267,0.0,0.0,96,0.00,,,0.00,weatherlink.com 1.10,2013-02-25 08:57:00,
2013-02-25 04:12:00,27.7,27.0,30.11,West,266,0.0,0.0,96,0.00,,,0.00,weatherlink.com 1.10,2013-02-25 09:12:00,
2013-02-25 04:27:00,27.9,27.0,30.12,West,266,0.0,0.0,96,0.00,,,0.00,weatherlink.com 1.10,2013-02-25 09:27:00,
2013-02-25 04:42:00,27.9,27.0,30.12,West,267,0.0,0.0,96,0.00,,,0.00,weatherlink.com 1.10,2013-02-25 09:42:00,
2013-02-25 04:57:00,28.1,27.0,30.12,West,267,0.0,0.0,96,0.00,,,0.00,weatherlink.com 1.10,2013-02-25 09:57:00,
2013-02-25 05:12:00,28.3,27.0,30.12,West,267,0.0,0.0,96,0.00,,,0.00,weatherlink.com 1.10,2013-02-25 10:12:00,
2013-02-25 05:29:00,28.2,27.0,30.13,West,267,0.0,0.0,96,0.00,,,0.00,weatherlink.com 1.10,2013-02-25 10:29:00,
2013-02-25 05:43:00,28.2,27.0,30.13,West,267,0.0,0.0,96,0.00,,,0.00,weatherlink.com 1.10,2013-02-25 10:43:00,
2013-02-25 05:58:00,28.3,27.0,30.14,West,267,0.0,0.0,96,0.00,,,0.00,weatherlink.com 1.10,2013-02-25 10:58:00,
2013-02-25 06:13:00,28.5,28.0,30.14,West,267,0.0,0.0,96,0.00,,,0.00,weatherlink.com 1.10,2013-02-25 11:13:00,
2013-02-25 06:28:00,28.5,28.0,30.15,West,267,0.0,0.0,96,0.00,,,0.00,weatherlink.com 1.10,2013-02-25 11:28:00,
2013-02-25 06:43:00,28.4,27.0,30.16,West,266,0.0,0.0,96,0.00,,,0.00,weatherlink.com 1.10,2013-02-25 11:43:00,
2013-02-25 06:58:00,28.5,28.0,30.15,West,266,0.0,0.0,97,0.00,,,0.00,weatherlink.com 1.10,2013-02-25 11:58:00,
2013-02-25 07:13:00,28.7,28.0,30.16,West,267,0.0,0.0,97,0.00,,,0.00,weatherlink.com 1.10,2013-02-25 12:13:00,
2013-02-25 07:28:00,28.8,28.0,30.16,West,267,0.0,0.0,97,0.00,,,0.00,weatherlink.com 1.10,2013-02-25 12:28:00,
2013-02-25 07:43:00,29.2,29.0,30.16,West,267,0.0,0.0,97,0.00,,,0.00,weatherlink.com 1.10,2013-02-25 12:43:00,
2013-02-25 07:58:00,29.4,29.0,30.17,West,267,0.0,0.0,97,0.00,,,0.00,weatherlink.com 1.10,2013-02-25 12:58:00,
2013-02-25 08:13:00,30.0,29.0,30.18,West,268,0.0,0.0,97,0.00,,,0.00,weatherlink.com 1.10,2013-02-25 13:13:00,
2013-02-25 08:28:00,30.6,30.0,30.18,West,267,0.0,0.0,96,0.00,,,0.00,weatherlink.com 1.10,2013-02-25 13:28:00,
2013-02-25 08:43:00,31.4,30.0,30.20,West,267,0.0,0.0,95,0.00,,,0.00,weatherlink.com 1.10,2013-02-25 13:43:00,
2013-02-25 08:58:00,32.3,31.0,30.21,West,266,0.0,1.0,93,0.00,,,0.00,weatherlink.com 1.10,2013-02-25 13:58:00,
2013-02-25 09:13:00,34.8,29.0,30.21,SE,134,3.0,6.0,78,0.00,,,0.00,weatherlink.com 1.10,2013-02-25 14:13:00,
2013-02-25 09:28:00,37.0,26.0,30.21,SE,134,4.0,6.0,64,0.00,,,0.00,weatherlink.com 1.10,2013-02-25 14:28:00,
2013-02-25 09:43:00,37.4,25.0,30.21,SE,134,3.0,6.0,61,0.00,,,0.00,weatherlink.com 1.10,2013-02-25 14:43:00,
2013-02-25 09:58:00,37.8,24.0,30.21,SSE,148,2.0,7.0,58,0.00,,,0.00,weatherlink.com 1.10,2013-02-25 14:58:00,
2013-02-25 10:13:00,38.2,24.0,30.21,South,188,3.0,6.0,56,0.00,,,0.00,weatherlink.com 1.10,2013-02-25 15:13:00,
2013-02-25 10:28:00,38.6,24.0,30.20,SE,133,3.0,7.0,56,0.00,,,0.00,weatherlink.com 1.10,2013-02-25 15:28:00,
2013-02-25 10:43:00,39.3,24.0,30.20,SSW,202,2.0,7.0,54,0.00,,,0.00,weatherlink.com 1.10,2013-02-25 15:43:00,
2013-02-25 10:58:00,40.1,24.0,30.19,SSW,205,7.0,7.0,52,0.00,,,0.00,weatherlink.com 1.10,2013-02-25 15:58:00,
2013-02-25 11:13:00,40.4,23.0,30.18,SSE,156,4.0,9.0,51,0.00,,,0.00,weatherlink.com 1.10,2013-02-25 16:13:00,
2013-02-25 11:28:00,40.9,24.0,30.18,SE,146,2.0,7.0,51,0.00,,,0.00,weatherlink.com 1.10,2013-02-25 16:28:00,
2013-02-25 11:44:00,41.1,24.0,30.18,ESE,123,3.0,6.0,52,0.00,,,0.00,weatherlink.com 1.10,2013-02-25 16:44:00,
2013-02-25 11:59:00,41.5,24.0,30.18,ENE,75,3.0,6.0,50,0.00,,,0.00,weatherlink.com 1.10,2013-02-25 16:59:00,
2013-02-25 12:14:00,41.9,25.0,30.19,ESE,115,3.0,8.0,51,0.00,,,0.00,weatherlink.com 1.10,2013-02-25 17:14:00,
2013-02-25 12:29:00,42.0,25.0,30.17,East,79,4.0,8.0,51,0.00,,,0.00,weatherlink.com 1.10,2013-02-25 17:29:00,
2013-02-25 12:44:00,41.9,24.0,30.16,SE,132,2.0,9.0,50,0.00,,,0.00,weatherlink.com 1.10,2013-02-25 17:44:00,
2013-02-25 12:59:00,41.9,24.0,30.17,ESE,118,2.0,10.0,49,0.00,,,0.00,weatherlink.com 1.10,2013-02-25 17:59:00,
2013-02-25 13:14:00,42.7,25.0,30.16,ENE,70,2.0,10.0,49,0.00,,,0.00,weatherlink.com 1.10,2013-02-25 18:14:00,
2013-02-25 13:29:00,43.6,24.0,30.17,East,82,4.0,10.0,46,0.00,,,0.00,weatherlink.com 1.10,2013-02-25 18:29:00,
2013-02-25 13:44:00,43.9,26.0,30.16,ENE,72,4.0,10.0,49,0.00,,,0.00,weatherlink.com 1.10,2013-02-25 18:44:00,
2013-02-25 13:59:00,43.2,25.0,30.16,SE,143,3.0,10.0,48,0.00,,,0.00,weatherlink.com 1.10,2013-02-25 18:59:00,
2013-02-25 14:14:00,43.0,25.0,30.15,SE,146,3.0,8.0,50,0.00,,,0.00,weatherlink.com 1.10,2013-02-25 19:14:00,
2013-02-25 14:29:00,42.9,26.0,30.14,ENE,72,4.0,6.0,52,0.00,,,0.00,weatherlink.com 1.10,2013-02-25 19:29:00,
2013-02-25 14:44:00,44.2,27.0,30.13,NE,53,3.0,7.0,51,0.00,,,0.00,weatherlink.com 1.10,2013-02-25 19:44:00,
2013-02-25 14:59:00,44.5,27.0,30.14,ESE,122,4.0,6.0,50,0.00,,,0.00,weatherlink.com 1.10,2013-02-25 19:59:00,
2013-02-25 15:14:00,44.6,29.0,30.13,East,98,1.0,4.0,54,0.00,,,0.00,weatherlink.com 1.10,2013-02-25 20:14:00,
2013-02-25 15:29:00,45.3,27.0,30.13,SW,215,0.0,9.0,50,0.00,,,0.00,weatherlink.com 1.10,2013-02-25 20:29:00,
2013-02-25 15:44:00,45.4,27.0,30.13,SSE,153,4.0,10.0,49,0.00,,,0.00,weatherlink.com 1.10,2013-02-25 20:44:00,
2013-02-25 15:59:00,45.6,29.0,30.12,SE,145,0.0,7.0,52,0.00,,,0.00,weatherlink.com 1.10,2013-02-25 20:59:00,
2013-02-25 16:14:00,45.5,30.0,30.12,East,98,4.0,5.0,54,0.00,,,0.00,weatherlink.com 1.10,2013-02-25 21:14:00,
2013-02-25 16:29:00,45.0,29.0,30.12,SE,139,2.0,7.0,53,0.00,,,0.00,weatherlink.com 1.10,2013-02-25 21:29:00,
2013-02-25 16:44:00,44.4,28.0,30.12,SSE,167,3.0,8.0,52,0.00,,,0.00,weatherlink.com 1.10,2013-02-25 21:44:00,
2013-02-25 16:59:00,44.4,29.0,30.12,ESE,106,1.0,6.0,54,0.00,,,0.00,weatherlink.com 1.10,2013-02-25 21:59:00,
2013-02-25 17:14:00,44.0,28.0,30.12,ENE,63,2.0,6.0,54,0.00,,,0.00,weatherlink.com 1.10,2013-02-25 22:14:00,
2013-02-25 17:29:00,43.6,29.0,30.11,SSE,155,4.0,7.0,57,0.00,,,0.00,weatherlink.com 1.10,2013-02-25 22:29:00,
2013-02-25 17:44:00,43.3,29.0,30.10,South,190,3.0,9.0,58,0.00,,,0.00,weatherlink.com 1.10,2013-02-25 22:44:00,
2013-02-25 17:59:00,43.1,29.0,30.10,SSE,148,4.0,7.0,59,0.00,,,0.00,weatherlink.com 1.10,2013-02-25 22:59:00,
2013-02-25 18:14:00,42.8,29.0,30.10,SSE,152,7.0,10.0,59,0.00,,,0.00,weatherlink.com 1.10,2013-02-25 23:14:00,
2013-02-25 18:29:00,42.4,28.0,30.11,SE,131,3.0,8.0,58,0.00,,,0.00,weatherlink.com 1.10,2013-02-25 23:29:00,
2013-02-25 18:44:00,42.0,28.0,30.11,WNW,294,0.0,7.0,59,0.00,,,0.00,weatherlink.com 1.10,2013-02-25 23:44:00,
2013-02-25 18:59:00,41.7,28.0,30.12,ESE,111,8.0,9.0,58,0.00,,,0.00,weatherlink.com 1.10,2013-02-25 23:59:00,
2013-02-25 19:14:00,41.3,28.0,30.11,SSE,149,4.0,9.0,59,0.00,,,0.00,weatherlink.com 1.10,2013-02-26 00:14:00,
2013-02-25 19:29:00,40.9,28.0,30.11,ESE,113,7.0,8.0,60,0.00,,,0.00,weatherlink.com 1.10,2013-02-26 00:29:00,
2013-02-25 19:44:00,40.7,28.0,30.11,ESE,110,4.0,10.0,62,0.00,,,0.00,weatherlink.com 1.10,2013-02-26 00:44:00,
2013-02-25 19:59:00,40.4,29.0,30.12,South,176,4.0,10.0,63,0.00,,,0.00,weatherlink.com 1.10,2013-02-26 00:59:00,
2013-02-25 20:14:00,40.1,29.0,30.11,SE,141,4.0,11.0,65,0.00,,,0.00,weatherlink.com 1.10,2013-02-26 01:14:00,
2013-02-25 20:29:00,39.8,30.0,30.13,SSW,210,6.0,15.0,69,0.00,,,0.00,weatherlink.com 1.10,2013-02-26 01:29:00,
2013-02-25 20:44:00,38.3,33.0,30.12,SSE,164,8.0,12.0,80,0.00,,,0.00,weatherlink.com 1.10,2013-02-26 01:44:00,
2013-02-25 20:59:00,36.8,33.0,30.12,SE,136,6.0,12.0,86,0.00,,,0.00,weatherlink.com 1.10,2013-02-26 01:59:00,
2013-02-25 21:14:00,36.0,33.0,30.13,SE,139,5.0,8.0,90,0.00,,,0.00,weatherlink.com 1.10,2013-02-26 02:14:00,
2013-02-25 21:29:00,35.9,34.0,30.11,East,89,4.0,6.0,93,0.00,,,0.00,weatherlink.com 1.10,2013-02-26 02:29:00,
2013-02-25 21:44:00,36.1,35.0,30.11,East,89,0.0,9.0,94,0.01,,,0.01,weatherlink.com 1.10,2013-02-26 02:44:00,
2013-02-25 21:59:00,36.0,35.0,30.11,SSE,152,4.0,9.0,94,0.01,,,0.01,weatherlink.com 1.10,2013-02-26 02:59:00,
2013-02-25 22:14:00,35.8,34.0,30.11,SW,220,6.0,11.0,94,0.02,,,0.02,weatherlink.com 1.10,2013-02-26 03:14:00,
2013-02-25 22:29:00,35.7,34.0,30.10,SSE,153,7.0,9.0,95,0.03,,,0.03,weatherlink.com 1.10,2013-02-26 03:29:00,
2013-02-25 22:44:00,35.7,34.0,30.10,SSE,152,3.0,11.0,95,0.03,,,0.04,weatherlink.com 1.10,2013-02-26 03:44:00,
2013-02-25 22:59:00,35.6,34.0,30.10,SSE,160,6.0,10.0,95,0.04,,,0.05,weatherlink.com 1.10,2013-02-26 03:59:00,
2013-02-25 23:14:00,35.5,34.0,30.09,South,191,3.0,10.0,95,0.04,,,0.06,weatherlink.com 1.10,2013-02-26 04:14:00,
2013-02-25 23:29:00,35.6,34.0,30.09,SSE,160,5.0,9.0,95,0.03,,,0.06,weatherlink.com 1.10,2013-02-26 04:29:00,
2013-02-25 23:44:00,35.9,35.0,30.09,SSE,157,4.0,12.0,96,0.04,,,0.08,weatherlink.com 1.10,2013-02-26 04:44:00,
2013-02-25 23:59:00,35.8,35.0,30.08,South,169,6.0,8.0,96,0.04,,,0.09,weatherlink.com 1.10,2013-02-26 04:59:00,